When you browse on this site, cookies collect data to enhance your experience and personalize the content and advertising you see.
Visit our Privacy Policy to learn more. By continuing to use the site, you agree to this use of cookies and data.
  • In Hungary
  • List of Countries
  • For 7 days
  • Water Temperature
  • Weather Map
  • News
  • Weather Widgets
  • user-avatar
    Login

    Hourly Weather Williams Lake

    Today, 22 November, Friday

    Time Temperature Precipitation Wind Pressure Humidity
    00:00 0°C° 0 mm 1 mps 693 mmHg 84%
    01:00 -1°C° 0 mm 1 mps 693 mmHg 86%
    02:00 -1°C° 0 mm 1 mps 694 mmHg 86%
    03:00 -1°C° 0 mm 1 mps 695 mmHg 87%
    04:00 -1°C° 0 mm 1 mps 695 mmHg 88%
    05:00 -1°C° 0 mm 1 mps 696 mmHg 88%
    06:00 -1°C° 0 mm 1 mps 696 mmHg 87%
    07:00 -1°C° 0 mm 1 mps 696 mmHg 87%
    08:00 0°C° 0 mm 1 mps 696 mmHg 81%
    09:00 +1°C° 0 mm 1 mps 696 mmHg 76%
    10:00 +2°C° 0 mm 1 mps 696 mmHg 70%
    11:00 +2°C° 0 mm 2 mps 696 mmHg 67%
    12:00 +3°C° 0 mm 2 mps 695 mmHg 65%
    13:00 +4°C° 0 mm 2 mps 695 mmHg 62%
    14:00 +3°C° 0 mm 2 mps 695 mmHg 64%
    15:00 +3°C° 0 mm 2 mps 695 mmHg 67%
    16:00 +2°C° 0 mm 2 mps 695 mmHg 69%
    17:00 +2°C° 0 mm 2 mps 695 mmHg 70%
    18:00 +1°C° 0 mm 2 mps 694 mmHg 72%
    19:00 +1°C° 0 mm 2 mps 694 mmHg 73%
    20:00 +1°C° 0 mm 2 mps 694 mmHg 73%
    21:00 +1°C° 0 mm 2 mps 694 mmHg 73%
    22:00 -1°C° 0 mm 2 mps 694 mmHg 73%
    23:00 -1°C° 0 mm 2 mps 694 mmHg 73%

    Tomorrow, 23 November, Saturday

    Time Temperature Precipitation Wind Pressure Humidity
    00:00 -1°C° 0 mm 2 mps 694 mmHg 73%
    01:00 -1°C° 0 mm 2 mps 694 mmHg 73%
    02:00 -1°C° 0 mm 2 mps 694 mmHg 74%
    03:00 -2°C° 0 mm 2 mps 694 mmHg 74%
    04:00 -2°C° 0 mm 2 mps 694 mmHg 75%
    05:00 -2°C° 0 mm 2 mps 694 mmHg 76%
    06:00 -2°C° 0 mm 2 mps 693 mmHg 77%
    07:00 -2°C° 0 mm 2 mps 693 mmHg 79%
    08:00 -1°C° 0 mm 2 mps 693 mmHg 77%
    09:00 +1°C° 0 mm 2 mps 693 mmHg 75%
    10:00 +1°C° 0 mm 3 mps 693 mmHg 73%
    11:00 +2°C° 0 mm 3 mps 692 mmHg 71%
    12:00 +3°C° 0 mm 3 mps 691 mmHg 69%
    13:00 +4°C° 0 mm 4 mps 690 mmHg 67%
    14:00 +3°C° 0 mm 4 mps 689 mmHg 70%
    15:00 +3°C° 0 mm 4 mps 689 mmHg 73%
    16:00 +3°C° 0 mm 4 mps 688 mmHg 76%
    17:00 +1°C° 0 mm 4 mps 688 mmHg 79%
    18:00 +2°C° 0 mm 3 mps 688 mmHg 82%
    19:00 +3°C° 0 mm 2 mps 687 mmHg 86%
    20:00 +2°C° 0.1 mm 2 mps 687 mmHg 88%
    21:00 +3°C° 0.1 mm 1 mps 688 mmHg 90%
    22:00 +3°C° 0.1 mm 1 mps 688 mmHg 92%
    23:00 +3°C° 0.7 mm 1 mps 688 mmHg 92%

    Day after tomorrow, 24 November, Sunday

    Time Temperature Precipitation Wind Pressure Humidity
    00:00 +2°C° 0.7 mm 2 mps 689 mmHg 91%
    01:00 +1°C° 0.7 mm 3 mps 689 mmHg 90%
    02:00 0°C° 0 mm 3 mps 690 mmHg 83%
    03:00 0°C° 0 mm 3 mps 691 mmHg 75%
    04:00 -1°C° 0 mm 3 mps 691 mmHg 68%
    05:00 -1°C° 0 mm 3 mps 692 mmHg 69%
    06:00 -1°C° 0 mm 3 mps 693 mmHg 69%
    07:00 -1°C° 0 mm 3 mps 693 mmHg 70%
    08:00 +1°C° 0 mm 2 mps 694 mmHg 68%
    09:00 +1°C° 0 mm 2 mps 694 mmHg 65%
    10:00 +2°C° 0 mm 2 mps 695 mmHg 63%
    11:00 +2°C° 0 mm 3 mps 694 mmHg 59%
    12:00 +3°C° 0 mm 3 mps 694 mmHg 55%
    13:00 +4°C° 0 mm 3 mps 694 mmHg 51%
    14:00 +3°C° 0 mm 3 mps 694 mmHg 56%
    15:00 +3°C° 0 mm 2 mps 694 mmHg 61%
    16:00 +1°C° 0 mm 2 mps 694 mmHg 66%
    17:00 +1°C° 0.1 mm 2 mps 693 mmHg 72%
    18:00 +1°C° 0.1 mm 2 mps 693 mmHg 78%
    19:00 -1°C° 0.1 mm 2 mps 693 mmHg 85%
    20:00 +1°C° 0.6 mm 1 mps 693 mmHg 88%
    21:00 +1°C° 0.6 mm 1 mps 693 mmHg 91%
    22:00 +1°C° 0.6 mm 1 mps 693 mmHg 94%
    23:00 0°C° 0.1 mm 1 mps 693 mmHg 93%

    25 November, Monday

    Time Temperature Precipitation Wind Pressure Humidity
    00:00 0°C° 0.1 mm 1 mps 693 mmHg 93%
    01:00 -1°C° 0.1 mm 1 mps 693 mmHg 92%
    02:00 -1°C° 0 mm 1 mps 693 mmHg 91%
    03:00 -2°C° 0 mm 1 mps 693 mmHg 90%
    04:00 -2°C° 0 mm 1 mps 693 mmHg 88%
    05:00 -2°C° 0 mm 1 mps 693 mmHg 86%
    06:00 -2°C° 0 mm 1 mps 693 mmHg 84%
    07:00 -1°C° 0 mm 1 mps 693 mmHg 82%
    08:00 -1°C° 0 mm 1 mps 693 mmHg 79%
    09:00 0°C° 0 mm 1 mps 693 mmHg 76%
    10:00 0°C° 0 mm 1 mps 693 mmHg 74%
    11:00 +1°C° 0 mm 1 mps 693 mmHg 68%
    12:00 +2°C° 0 mm 1 mps 692 mmHg 62%
    13:00 +3°C° 0 mm 1 mps 692 mmHg 56%
    14:00 +1°C° 0 mm 1 mps 692 mmHg 62%
    15:00 -1°C° 0 mm 0 mps 691 mmHg 67%
    16:00 -2°C° 0 mm 0 mps 691 mmHg 72%
    17:00 -2°C° 0 mm 0 mps 691 mmHg 75%
    18:00 -2°C° 0 mm 0 mps 691 mmHg 78%
    19:00 -2°C° 0 mm 0 mps 691 mmHg 80%
    20:00 -3°C° 0 mm 0 mps 691 mmHg 82%
    21:00 -3°C° 0 mm 0 mps 691 mmHg 83%
    22:00 -3°C° 0 mm 0 mps 691 mmHg 84%
    23:00 -3°C° 0 mm 0 mps 691 mmHg 85%

    26 November, Tuesday

    Time Temperature Precipitation Wind Pressure Humidity
    00:00 -3°C° 0 mm 0 mps 691 mmHg 85%
    01:00 -3°C° 0 mm 0 mps 691 mmHg 86%
    02:00 -3°C° 0 mm 0 mps 691 mmHg 88%
    03:00 -3°C° 0 mm 0 mps 691 mmHg 89%
    04:00 -3°C° 0 mm 0 mps 691 mmHg 91%
    05:00 -3°C° 0.1 mm 0 mps 691 mmHg 91%
    06:00 -4°C° 0.1 mm 0 mps 691 mmHg 92%
    07:00 -3°C° 0.1 mm 1 mps 691 mmHg 92%
    08:00 -2°C° 0.1 mm 1 mps 691 mmHg 89%
    09:00 -2°C° 0.1 mm 1 mps 691 mmHg 85%
    10:00 -2°C° 0.1 mm 1 mps 692 mmHg 82%
    11:00 -2°C° 0 mm 1 mps 691 mmHg 79%
    12:00 -4°C° 0 mm 2 mps 691 mmHg 77%
    13:00 -3°C° 0 mm 2 mps 691 mmHg 74%
    14:00 -4°C° 0 mm 2 mps 692 mmHg 76%
    15:00 -5°C° 0 mm 2 mps 692 mmHg 78%
    16:00 -6°C° 0 mm 2 mps 692 mmHg 80%
    17:00 -7°C° 0 mm 3 mps 693 mmHg 79%
    18:00 -8°C° 0 mm 3 mps 694 mmHg 78%
    19:00 -9°C° 0 mm 3 mps 695 mmHg 77%
    20:00 -9°C° 0 mm 3 mps 695 mmHg 76%
    21:00 -9°C° 0 mm 2 mps 696 mmHg 75%
    22:00 -10°C° 0 mm 2 mps 697 mmHg 74%
    23:00 -10°C° 0 mm 2 mps 697 mmHg 74%

    27 November, Wednesday

    Time Temperature Precipitation Wind Pressure Humidity
    00:00 -10°C° 0 mm 2 mps 698 mmHg 75%
    01:00 -12°C° 0 mm 2 mps 698 mmHg 75%
    02:00 -12°C° 0 mm 2 mps 699 mmHg 74%
    03:00 -12°C° 0 mm 2 mps 699 mmHg 74%
    04:00 -13°C° 0 mm 2 mps 700 mmHg 74%
    05:00 -13°C° 0 mm 2 mps 700 mmHg 74%
    06:00 -13°C° 0 mm 2 mps 701 mmHg 74%
    07:00 -13°C° 0 mm 2 mps 701 mmHg 74%
    08:00 -13°C° 0 mm 2 mps 702 mmHg 72%
    09:00 -13°C° 0 mm 2 mps 702 mmHg 70%
    10:00 -13°C° 0 mm 2 mps 702 mmHg 68%
    11:00 -12°C° 0 mm 2 mps 702 mmHg 65%
    12:00 -12°C° 0 mm 2 mps 701 mmHg 62%
    13:00 -10°C° 0 mm 2 mps 701 mmHg 59%
    14:00 -10°C° 0 mm 1 mps 701 mmHg 62%
    15:00 -10°C° 0 mm 1 mps 701 mmHg 65%
    16:00 -11°C° 0 mm 1 mps 700 mmHg 68%
    17:00 -11°C° 0 mm 1 mps 701 mmHg 69%
    18:00 -12°C° 0 mm 1 mps 701 mmHg 71%
    19:00 -12°C° 0 mm 1 mps 701 mmHg 72%
    20:00 -12°C° 0 mm 1 mps 701 mmHg 72%
    21:00 -12°C° 0 mm 0 mps 701 mmHg 73%
    22:00 -13°C° 0 mm 0 mps 700 mmHg 73%
    23:00 -13°C° 0 mm 0 mps 700 mmHg 74%
    Show more